owner,sensor,date,latitude,longitude,vertical_datum,wind_speed,wind_to_direction,wind_speed_of_gust,qcFlag 
COMPS,ioos:station:USF.COMPS:EGK:1,2010-12-01T00:00:00Z,27.6010,-82.7510,10.0,4.1,210.0,,'1111122,1111122,1111122' 
COMPS,ioos:station:USF.COMPS:EGK:1,2010-12-01T01:00:00Z,27.6010,-82.7510,10.0,3.1,230.0,,'1111122,1111122,1111122' 
COMPS,ioos:station:USF.COMPS:EGK:1,2010-12-01T02:00:00Z,27.6010,-82.7510,10.0,2.6,200.0,,'1111122,1111122,1111122' 
COMPS,ioos:station:USF.COMPS:EGK:1,2010-12-01T03:00:00Z,27.6010,-82.7510,10.0,3.1,220.0,,'1111122,1111122,1111122' 
COMPS,ioos:station:USF.COMPS:EGK:1,2010-12-01T14:00:00Z,27.6010,-82.7510,10.0,12.9,340.0,,'1111122,1111122,1111122' 
COMPS,ioos:station:USF.COMPS:EGK:1,2010-12-01T15:00:00Z,27.6010,-82.7510,10.0,12.3,340.0,,'1111122,1111122,1111122' 
COMPS,ioos:station:USF.COMPS:EGK:1,2010-12-01T16:00:00Z,27.6010,-82.7510,10.0,12.3,340.0,,'1111122,1111122,1111122' 
COMPS,ioos:station:USF.COMPS:EGK:1,2010-12-01T17:00:00Z,27.6010,-82.7510,10.0,10.3,350.0,,'1111122,1111122,1111122' 
COMPS,ioos:station:USF.COMPS:EGK:1,2010-12-01T18:00:00Z,27.6010,-82.7510,10.0,10.3,350.0,,'1111122,1111122,1111122' 
COMPS,ioos:station:USF.COMPS:EGK:1,2010-12-01T19:00:00Z,27.6010,-82.7510,10.0,10.8,350.0,,'1111122,1111122,1111122' 
COMPS,ioos:station:USF.COMPS:EGK:1,2010-12-01T20:00:00Z,27.6010,-82.7510,10.0,8.7,360.0,,'1111122,1111122,1111122' 
COMPS,ioos:station:USF.COMPS:EGK:1,2010-12-01T21:00:00Z,27.6010,-82.7510,10.0,9.3,350.0,,'1111122,1111122,1111122' 
COMPS,ioos:station:USF.COMPS:EGK:1,2010-12-01T22:00:00Z,27.6010,-82.7510,10.0,8.7,350.0,,'1111122,1111122,1111122' 
COMPS,ioos:station:USF.COMPS:EGK:1,2010-12-01T23:00:00Z,27.6010,-82.7510,10.0,8.7,360.0,,'1111122,1111122,1111122' 
COMPS,ioos:station:USF.COMPS:EGK:1,2010-12-02T00:00:00Z,27.6010,-82.7510,10.0,8.7,360.0,,'1111122,1111122,1111122' 
COMPS,ioos:station:USF.COMPS:EGK:1,2010-12-02T01:00:00Z,27.6010,-82.7510,10.0,8.7,10.0,,'1111122,1111122,1111122' 
COMPS,ioos:station:USF.COMPS:EGK:1,2010-12-02T02:00:00Z,27.6010,-82.7510,10.0,7.7,30.0,,'1111122,1111122,1111122' 
COMPS,ioos:station:USF.COMPS:EGK:1,2010-12-02T03:00:00Z,27.6010,-82.7510,10.0,8.2,30.0,,'1111122,1111122,1111122' 
COMPS,ioos:station:USF.COMPS:EGK:1,2010-12-02T12:00:00Z,27.6010,-82.7510,10.0,8.7,30.0,,'1111122,1111122,1111122' 
COMPS,ioos:station:USF.COMPS:EGK:1,2010-12-02T13:00:00Z,27.6010,-82.7510,10.0,8.7,30.0,,'1111122,1111122,1111122' 
COMPS,ioos:station:USF.COMPS:EGK:1,2010-12-02T14:00:00Z,27.6010,-82.7510,10.0,9.8,30.0,,'1111122,1111122,1111122' 
COMPS,ioos:station:USF.COMPS:EGK:1,2010-12-02T15:00:00Z,27.6010,-82.7510,10.0,9.8,30.0,,'1111122,1111122,1111122' 
COMPS,ioos:station:USF.COMPS:EGK:1,2010-12-02T16:00:00Z,27.6010,-82.7510,10.0,7.7,10.0,,'1111122,1111122,1111122' 
COMPS,ioos:station:USF.COMPS:EGK:1,2010-12-02T17:00:00Z,27.6010,-82.7510,10.0,5.7,20.0,,'1111122,1111122,1111122' 
COMPS,ioos:station:USF.COMPS:EGK:1,2010-12-02T18:00:00Z,27.6010,-82.7510,10.0,5.1,10.0,,'1111122,1111122,1111122' 
COMPS,ioos:station:USF.COMPS:EGK:1,2010-12-02T19:00:00Z,27.6010,-82.7510,10.0,4.6,10.0,,'1111122,1111122,1111122' 
COMPS,ioos:station:USF.COMPS:EGK:1,2010-12-02T20:00:00Z,27.6010,-82.7510,10.0,4.1,10.0,,'1111122,1111122,1111122' 
COMPS,ioos:station:USF.COMPS:EGK:1,2010-12-02T21:00:00Z,27.6010,-82.7510,10.0,5.1,340.0,,'1111122,1111122,1111122' 
COMPS,ioos:station:USF.COMPS:EGK:1,2010-12-02T23:00:00Z,27.6010,-82.7510,10.0,5.1,360.0,,'1111122,1111122,1111122' 
COMPS,ioos:station:USF.COMPS:EGK:1,2010-12-03T00:00:00Z,27.6010,-82.7510,10.0,6.2,360.0,,'1111122,1111122,1111122' 
COMPS,ioos:station:USF.COMPS:EGK:1,2010-12-03T02:00:00Z,27.6010,-82.7510,10.0,8.2,10.0,,'1111122,1111122,1111122' 
COMPS,ioos:station:USF.COMPS:EGK:1,2010-12-03T03:00:00Z,27.6010,-82.7510,10.0,8.2,20.0,,'1111122,1111122,1111122' 
COMPS,ioos:station:USF.COMPS:EGK:1,2010-12-03T12:00:00Z,27.6010,-82.7510,10.0,6.7,20.0,,'1111122,1111122,1111122' 
COMPS,ioos:station:USF.COMPS:EGK:1,2010-12-03T13:00:00Z,27.6010,-82.7510,10.0,8.2,30.0,,'1111122,1111122,1111122' 
COMPS,ioos:station:USF.COMPS:EGK:1,2010-12-03T14:00:00Z,27.6010,-82.7510,10.0,7.7,30.0,,'1111122,1111122,1111122' 
COMPS,ioos:station:USF.COMPS:EGK:1,2010-12-03T15:00:00Z,27.6010,-82.7510,10.0,8.2,30.0,,'1111122,1111122,1111122' 
COMPS,ioos:station:USF.COMPS:EGK:1,2010-12-03T16:00:00Z,27.6010,-82.7510,10.0,7.2,20.0,,'1111122,1111122,1111122' 
COMPS,ioos:station:USF.COMPS:EGK:1,2010-12-03T17:00:00Z,27.6010,-82.7510,10.0,5.7,20.0,,'1111122,1111122,1111122' 
COMPS,ioos:station:USF.COMPS:EGK:1,2010-12-03T18:00:00Z,27.6010,-82.7510,10.0,4.6,20.0,,'1111122,1111122,1111122' 
COMPS,ioos:station:USF.COMPS:EGK:1,2010-12-03T19:00:00Z,27.6010,-82.7510,10.0,3.6,10.0,,'1111122,1111122,1111122' 
COMPS,ioos:station:USF.COMPS:EGK:1,2010-12-03T20:00:00Z,27.6010,-82.7510,10.0,4.1,350.0,,'1111122,1111122,1111122' 
COMPS,ioos:station:USF.COMPS:EGK:1,2010-12-03T21:00:00Z,27.6010,-82.7510,10.0,4.6,340.0,,'1111122,1111122,1111122' 
COMPS,ioos:station:USF.COMPS:EGK:1,2010-12-03T22:00:00Z,27.6010,-82.7510,10.0,5.7,340.0,,'1111122,1111122,1111122' 
COMPS,ioos:station:USF.COMPS:EGK:1,2010-12-03T23:00:00Z,27.6010,-82.7510,10.0,5.1,360.0,,'1111122,1111122,1111122' 
COMPS,ioos:station:USF.COMPS:EGK:1,2010-12-04T00:00:00Z,27.6010,-82.7510,10.0,6.2,360.0,,'1111122,1111122,1111122' 
COMPS,ioos:station:USF.COMPS:EGK:1,2010-12-04T01:00:00Z,27.6010,-82.7510,10.0,5.7,10.0,,'1111122,1111122,1111122' 
COMPS,ioos:station:USF.COMPS:EGK:1,2010-12-04T02:00:00Z,27.6010,-82.7510,10.0,4.1,360.0,,'1111122,1111122,1111122' 
COMPS,ioos:station:USF.COMPS:EGK:1,2010-12-04T03:00:00Z,27.6010,-82.7510,10.0,4.1,360.0,,'1111122,1111122,1111122' 
COMPS,ioos:station:USF.COMPS:EGK:1,2010-12-04T12:00:00Z,27.6010,-82.7510,10.0,2.6,80.0,,'1111122,1111122,1111122' 
COMPS,ioos:station:USF.COMPS:EGK:1,2010-12-04T13:00:00Z,27.6010,-82.7510,10.0,2.1,120.0,,'1111122,1111122,1111122' 
COMPS,ioos:station:USF.COMPS:EGK:1,2010-12-04T14:00:00Z,27.6010,-82.7510,10.0,2.6,140.0,,'1111122,1111122,1111122' 
COMPS,ioos:station:USF.COMPS:EGK:1,2010-12-04T15:00:00Z,27.6010,-82.7510,10.0,2.6,120.0,,'1111122,1111122,1111122' 
COMPS,ioos:station:USF.COMPS:EGK:1,2010-12-04T16:00:00Z,27.6010,-82.7510,10.0,2.1,140.0,,'1111122,1111122,1111122' 
COMPS,ioos:station:USF.COMPS:EGK:1,2010-12-04T17:00:00Z,27.6010,-82.7510,10.0,1.5,160.0,,'1111122,1111122,1111122' 
COMPS,ioos:station:USF.COMPS:EGK:1,2010-12-04T18:00:00Z,27.6010,-82.7510,10.0,1.5,160.0,,'1111122,1111122,1111122' 
COMPS,ioos:station:USF.COMPS:EGK:1,2010-12-04T19:00:00Z,27.6010,-82.7510,10.0,1.5,250.0,,'1111122,1111122,1111122' 
COMPS,ioos:station:USF.COMPS:EGK:1,2010-12-04T20:00:00Z,27.6010,-82.7510,10.0,2.6,250.0,,'1111122,1111122,1111122' 
COMPS,ioos:station:USF.COMPS:EGK:1,2010-12-04T21:00:00Z,27.6010,-82.7510,10.0,2.1,230.0,,'1111122,1111122,1111122' 
COMPS,ioos:station:USF.COMPS:EGK:1,2010-12-04T22:00:00Z,27.6010,-82.7510,10.0,2.6,220.0,,'1111122,1111122,1111122' 
COMPS,ioos:station:USF.COMPS:EGK:1,2010-12-04T23:00:00Z,27.6010,-82.7510,10.0,2.1,250.0,,'1111122,1111122,1111122' 
COMPS,ioos:station:USF.COMPS:EGK:1,2010-12-05T00:00:00Z,27.6010,-82.7510,10.0,2.6,270.0,,'1111122,1111122,1111122' 
COMPS,ioos:station:USF.COMPS:EGK:1,2010-12-05T01:00:00Z,27.6010,-82.7510,10.0,3.6,260.0,,'1111122,1111122,1111122' 
COMPS,ioos:station:USF.COMPS:EGK:1,2010-12-05T02:00:00Z,27.6010,-82.7510,10.0,3.1,250.0,,'1111122,1111122,1111122' 
COMPS,ioos:station:USF.COMPS:EGK:1,2010-12-05T03:00:00Z,27.6010,-82.7510,10.0,3.6,250.0,,'1111122,1111122,1111122' 
COMPS,ioos:station:USF.COMPS:EGK:1,2010-12-05T13:00:00Z,27.6010,-82.7510,10.0,4.1,270.0,,'1111122,1111122,1111122' 
COMPS,ioos:station:USF.COMPS:EGK:1,2010-12-05T14:00:00Z,27.6010,-82.7510,10.0,3.6,260.0,,'1111122,1111122,1111122' 
COMPS,ioos:station:USF.COMPS:EGK:1,2010-12-05T15:00:00Z,27.6010,-82.7510,10.0,4.1,270.0,,'1111122,1111122,1111122' 
COMPS,ioos:station:USF.COMPS:EGK:1,2010-12-05T16:00:00Z,27.6010,-82.7510,10.0,5.7,350.0,,'1111122,1111122,1111122' 
COMPS,ioos:station:USF.COMPS:EGK:1,2010-12-05T23:00:00Z,27.6010,-82.7510,10.0,9.8,340.0,,'1111122,1111122,1111122' 
COMPS,ioos:station:USF.COMPS:EGK:1,2010-12-06T00:00:00Z,27.6010,-82.7510,10.0,9.3,340.0,,'1111122,1111122,1111122' 
COMPS,ioos:station:USF.COMPS:EGK:1,2010-12-06T01:00:00Z,27.6010,-82.7510,10.0,9.8,340.0,,'1111122,1111122,1111122' 
COMPS,ioos:station:USF.COMPS:EGK:1,2010-12-06T02:00:00Z,27.6010,-82.7510,10.0,9.3,350.0,,'1111122,1111122,1111122' 
COMPS,ioos:station:USF.COMPS:EGK:1,2010-12-06T03:00:00Z,27.6010,-82.7510,10.0,8.7,350.0,,'1111122,1111122,1111122' 
COMPS,ioos:station:USF.COMPS:EGK:1,2010-12-06T12:00:00Z,27.6010,-82.7510,10.0,8.7,20.0,,'1111122,1111122,1111122' 
COMPS,ioos:station:USF.COMPS:EGK:1,2010-12-06T14:00:00Z,27.6010,-82.7510,10.0,7.2,10.0,,'1111122,1111122,1111122' 
COMPS,ioos:station:USF.COMPS:EGK:1,2010-12-06T15:00:00Z,27.6010,-82.7510,10.0,6.7,10.0,,'1111122,1111122,1111122' 
COMPS,ioos:station:USF.COMPS:EGK:1,2010-12-06T16:00:00Z,27.6010,-82.7510,10.0,8.2,340.0,,'1111122,1111122,1111122' 
COMPS,ioos:station:USF.COMPS:EGK:1,2010-12-06T17:00:00Z,27.6010,-82.7510,10.0,8.2,340.0,,'1111122,1111122,1111122' 
COMPS,ioos:station:USF.COMPS:EGK:1,2010-12-06T18:00:00Z,27.6010,-82.7510,10.0,8.2,340.0,,'1111122,1111122,1111122' 
COMPS,ioos:station:USF.COMPS:EGK:1,2010-12-06T19:00:00Z,27.6010,-82.7510,10.0,9.8,340.0,,'1111122,1111122,1111122' 
COMPS,ioos:station:USF.COMPS:EGK:1,2010-12-06T20:00:00Z,27.6010,-82.7510,10.0,9.3,340.0,,'1111122,1111122,1111122' 
COMPS,ioos:station:USF.COMPS:EGK:1,2010-12-06T21:00:00Z,27.6010,-82.7510,10.0,10.8,330.0,,'1111122,1111122,1111122' 
COMPS,ioos:station:USF.COMPS:EGK:1,2010-12-06T22:00:00Z,27.6010,-82.7510,10.0,10.3,330.0,,'1111122,1111122,1111122' 
COMPS,ioos:station:USF.COMPS:EGK:1,2010-12-06T23:00:00Z,27.6010,-82.7510,10.0,10.8,330.0,,'1111122,1111122,1111122' 
COMPS,ioos:station:USF.COMPS:EGK:1,2010-12-07T00:00:00Z,27.6010,-82.7510,10.0,9.3,340.0,,'1111122,1111122,1111122' 
COMPS,ioos:station:USF.COMPS:EGK:1,2010-12-07T01:00:00Z,27.6010,-82.7510,10.0,9.3,340.0,,'1111122,1111122,1111122' 
COMPS,ioos:station:USF.COMPS:EGK:1,2010-12-07T02:00:00Z,27.6010,-82.7510,10.0,9.8,340.0,,'1111122,1111122,1111122' 
COMPS,ioos:station:USF.COMPS:EGK:1,2010-12-07T14:00:00Z,27.6010,-82.7510,10.0,6.7,40.0,,'1111122,1111122,1111122' 
COMPS,ioos:station:USF.COMPS:EGK:1,2010-12-07T15:00:00Z,27.6010,-82.7510,10.0,6.7,30.0,,'1111122,1111122,1111122' 
COMPS,ioos:station:USF.COMPS:EGK:1,2010-12-07T16:00:00Z,27.6010,-82.7510,10.0,7.7,10.0,,'1111122,1111122,1111122' 
COMPS,ioos:station:USF.COMPS:EGK:1,2010-12-07T17:00:00Z,27.6010,-82.7510,10.0,7.2,360.0,,'1111122,1111122,1111122' 
COMPS,ioos:station:USF.COMPS:EGK:1,2010-12-07T18:00:00Z,27.6010,-82.7510,10.0,6.2,360.0,,'1111122,1111122,1111122' 
COMPS,ioos:station:USF.COMPS:EGK:1,2010-12-07T19:00:00Z,27.6010,-82.7510,10.0,6.7,350.0,,'1111122,1111122,1111122' 
COMPS,ioos:station:USF.COMPS:EGK:1,2010-12-07T20:00:00Z,27.6010,-82.7510,10.0,6.2,350.0,,'1111122,1111122,1111122' 
COMPS,ioos:station:USF.COMPS:EGK:1,2010-12-07T21:00:00Z,27.6010,-82.7510,10.0,6.7,340.0,,'1111122,1111122,1111122' 
COMPS,ioos:station:USF.COMPS:EGK:1,2010-12-07T22:00:00Z,27.6010,-82.7510,10.0,5.7,350.0,,'1111122,1111122,1111122' 
COMPS,ioos:station:USF.COMPS:EGK:1,2010-12-07T23:00:00Z,27.6010,-82.7510,10.0,7.7,340.0,,'1111122,1111122,1111122' 
COMPS,ioos:station:USF.COMPS:EGK:1,2010-12-08T00:00:00Z,27.6010,-82.7510,10.0,6.7,330.0,,'1111122,1111122,1111122' 
COMPS,ioos:station:USF.COMPS:EGK:1,2010-12-08T01:00:00Z,27.6010,-82.7510,10.0,6.7,340.0,,'1111122,1111122,1111122' 
COMPS,ioos:station:USF.COMPS:EGK:1,2010-12-08T02:00:00Z,27.6010,-82.7510,10.0,7.7,340.0,,'1111122,1111122,1111122' 
COMPS,ioos:station:USF.COMPS:EGK:1,2010-12-08T12:00:00Z,27.6010,-82.7510,10.0,7.2,40.0,,'1111122,1111122,1111122' 
COMPS,ioos:station:USF.COMPS:EGK:1,2010-12-08T13:00:00Z,27.6010,-82.7510,10.0,7.2,50.0,,'1111122,1111122,1111122' 
COMPS,ioos:station:USF.COMPS:EGK:1,2010-12-08T14:00:00Z,27.6010,-82.7510,10.0,6.7,50.0,,'1111122,1111122,1111122' 
COMPS,ioos:station:USF.COMPS:EGK:1,2010-12-08T15:00:00Z,27.6010,-82.7510,10.0,6.2,60.0,,'1111122,1111122,1111122' 
COMPS,ioos:station:USF.COMPS:EGK:1,2010-12-08T16:00:00Z,27.6010,-82.7510,10.0,5.7,80.0,,'1111122,1111122,1111122' 
COMPS,ioos:station:USF.COMPS:EGK:1,2010-12-08T18:00:00Z,27.6010,-82.7510,10.0,2.1,20.0,,'1111122,1111122,1111122' 
COMPS,ioos:station:USF.COMPS:EGK:1,2010-12-08T19:00:00Z,27.6010,-82.7510,10.0,5.1,340.0,,'1111122,1111122,1111122' 
COMPS,ioos:station:USF.COMPS:EGK:1,2010-12-08T20:00:00Z,27.6010,-82.7510,10.0,3.6,350.0,,'1111122,1111122,1111122' 
COMPS,ioos:station:USF.COMPS:EGK:1,2010-12-08T21:00:00Z,27.6010,-82.7510,10.0,3.6,360.0,,'1111122,1111122,1111122' 
COMPS,ioos:station:USF.COMPS:EGK:1,2010-12-08T22:00:00Z,27.6010,-82.7510,10.0,2.1,80.0,,'1111122,1111122,1111122' 
COMPS,ioos:station:USF.COMPS:EGK:1,2010-12-08T23:00:00Z,27.6010,-82.7510,10.0,4.6,60.0,,'1111122,1111122,1111122' 
COMPS,ioos:station:USF.COMPS:EGK:1,2010-12-09T00:00:00Z,27.6010,-82.7510,10.0,4.1,30.0,,'1111122,1111122,1111122' 
COMPS,ioos:station:USF.COMPS:EGK:1,2010-12-09T01:00:00Z,27.6010,-82.7510,10.0,2.6,360.0,,'1111122,1111122,1111122' 
COMPS,ioos:station:USF.COMPS:EGK:1,2010-12-09T02:00:00Z,27.6010,-82.7510,10.0,8.7,360.0,,'1111122,1111122,1111122' 
COMPS,ioos:station:USF.COMPS:EGK:1,2010-12-09T14:00:00Z,27.6010,-82.7510,10.0,5.7,20.0,,'1111122,1111122,1111122' 
COMPS,ioos:station:USF.COMPS:EGK:1,2010-12-09T15:00:00Z,27.6010,-82.7510,10.0,5.1,40.0,,'1111122,1111122,1111122' 
COMPS,ioos:station:USF.COMPS:EGK:1,2010-12-09T17:00:00Z,27.6010,-82.7510,10.0,4.6,20.0,,'1111122,1111122,1111122' 
COMPS,ioos:station:USF.COMPS:EGK:1,2010-12-09T18:00:00Z,27.6010,-82.7510,10.0,4.6,360.0,,'1111122,1111122,1111122' 
COMPS,ioos:station:USF.COMPS:EGK:1,2010-12-09T19:00:00Z,27.6010,-82.7510,10.0,5.1,340.0,,'1111122,1111122,1111122' 
COMPS,ioos:station:USF.COMPS:EGK:1,2010-12-09T21:00:00Z,27.6010,-82.7510,10.0,6.7,340.0,,'1111122,1111122,1111122' 
COMPS,ioos:station:USF.COMPS:EGK:1,2010-12-09T23:00:00Z,27.6010,-82.7510,10.0,5.7,360.0,,'1111122,1111122,1111122' 
COMPS,ioos:station:USF.COMPS:EGK:1,2010-12-10T00:00:00Z,27.6010,-82.7510,10.0,7.2,10.0,,'1111122,1111122,1111122' 
COMPS,ioos:station:USF.COMPS:EGK:1,2010-12-10T01:00:00Z,27.6010,-82.7510,10.0,7.2,20.0,,'1111122,1111122,1111122' 
COMPS,ioos:station:USF.COMPS:EGK:1,2010-12-10T03:00:00Z,27.6010,-82.7510,10.0,7.2,30.0,,'1111122,1111122,1111122' 
COMPS,ioos:station:USF.COMPS:EGK:1,2010-12-10T12:00:00Z,27.6010,-82.7510,10.0,3.6,40.0,,'1111122,1111122,1111122' 
COMPS,ioos:station:USF.COMPS:EGK:1,2010-12-10T13:00:00Z,27.6010,-82.7510,10.0,3.1,20.0,,'1111122,1111122,1111122' 
COMPS,ioos:station:USF.COMPS:EGK:1,2010-12-10T14:00:00Z,27.6010,-82.7510,10.0,3.6,350.0,,'1111122,1111122,1111122' 
COMPS,ioos:station:USF.COMPS:EGK:1,2010-12-10T15:00:00Z,27.6010,-82.7510,10.0,4.6,350.0,,'1111122,1111122,1111122' 
COMPS,ioos:station:USF.COMPS:EGK:1,2010-12-10T16:00:00Z,27.6010,-82.7510,10.0,7.2,340.0,,'1111122,1111122,1111122' 
COMPS,ioos:station:USF.COMPS:EGK:1,2010-12-10T17:00:00Z,27.6010,-82.7510,10.0,6.7,340.0,,'1111122,1111122,1111122' 
COMPS,ioos:station:USF.COMPS:EGK:1,2010-12-10T18:00:00Z,27.6010,-82.7510,10.0,6.2,350.0,,'1111122,1111122,1111122' 
COMPS,ioos:station:USF.COMPS:EGK:1,2010-12-10T19:00:00Z,27.6010,-82.7510,10.0,7.2,340.0,,'1111122,1111122,1111122' 
COMPS,ioos:station:USF.COMPS:EGK:1,2010-12-10T20:00:00Z,27.6010,-82.7510,10.0,6.2,340.0,,'1111122,1111122,1111122' 
COMPS,ioos:station:USF.COMPS:EGK:1,2010-12-10T21:00:00Z,27.6010,-82.7510,10.0,6.7,340.0,,'1111122,1111122,1111122' 
COMPS,ioos:station:USF.COMPS:EGK:1,2010-12-10T22:00:00Z,27.6010,-82.7510,10.0,8.2,340.0,,'1111122,1111122,1111122' 
COMPS,ioos:station:USF.COMPS:EGK:1,2010-12-10T23:00:00Z,27.6010,-82.7510,10.0,5.7,350.0,,'1111122,1111122,1111122' 
COMPS,ioos:station:USF.COMPS:EGK:1,2010-12-11T00:00:00Z,27.6010,-82.7510,10.0,5.7,10.0,,'1111122,1111122,1111122' 
COMPS,ioos:station:USF.COMPS:EGK:1,2010-12-11T01:00:00Z,27.6010,-82.7510,10.0,6.7,10.0,,'1111122,1111122,1111122' 
COMPS,ioos:station:USF.COMPS:EGK:1,2010-12-11T02:00:00Z,27.6010,-82.7510,10.0,5.1,20.0,,'1111122,1111122,1111122' 
COMPS,ioos:station:USF.COMPS:EGK:1,2010-12-11T03:00:00Z,27.6010,-82.7510,10.0,5.1,30.0,,'1111122,1111122,1111122' 
COMPS,ioos:station:USF.COMPS:EGK:1,2010-12-11T14:00:00Z,27.6010,-82.7510,10.0,3.1,20.0,,'1111122,1111122,1111122' 
COMPS,ioos:station:USF.COMPS:EGK:1,2010-12-11T15:00:00Z,27.6010,-82.7510,10.0,3.6,30.0,,'1111122,1111122,1111122' 
COMPS,ioos:station:USF.COMPS:EGK:1,2010-12-11T16:00:00Z,27.6010,-82.7510,10.0,3.1,360.0,,'1111122,1111122,1111122' 
COMPS,ioos:station:USF.COMPS:EGK:1,2010-12-11T18:00:00Z,27.6010,-82.7510,10.0,4.6,350.0,,'1111122,1111122,1111122' 
COMPS,ioos:station:USF.COMPS:EGK:1,2010-12-11T19:00:00Z,27.6010,-82.7510,10.0,4.1,360.0,,'1111122,1111122,1111122' 
COMPS,ioos:station:USF.COMPS:EGK:1,2010-12-11T20:00:00Z,27.6010,-82.7510,10.0,5.1,350.0,,'1111122,1111122,1111122' 
COMPS,ioos:station:USF.COMPS:EGK:1,2010-12-11T21:00:00Z,27.6010,-82.7510,10.0,4.1,360.0,,'1111122,1111122,1111122' 
COMPS,ioos:station:USF.COMPS:EGK:1,2010-12-11T23:00:00Z,27.6010,-82.7510,10.0,1.0,70.0,,'1111122,1111122,1111122' 
COMPS,ioos:station:USF.COMPS:EGK:1,2010-12-12T00:00:00Z,27.6010,-82.7510,10.0,1.5,90.0,,'1111122,1111122,1111122' 
COMPS,ioos:station:USF.COMPS:EGK:1,2010-12-12T01:00:00Z,27.6010,-82.7510,10.0,2.6,130.0,,'1111122,1111122,1111122' 
COMPS,ioos:station:USF.COMPS:EGK:1,2010-12-12T03:00:00Z,27.6010,-82.7510,10.0,2.6,130.0,,'1111122,1111122,1111122' 
COMPS,ioos:station:USF.COMPS:EGK:1,2010-12-12T13:00:00Z,27.6010,-82.7510,10.0,5.7,180.0,,'1111122,1111122,1111122' 
COMPS,ioos:station:USF.COMPS:EGK:1,2010-12-12T14:00:00Z,27.6010,-82.7510,10.0,6.7,190.0,,'1111122,1111122,1111122' 
COMPS,ioos:station:USF.COMPS:EGK:1,2010-12-12T15:00:00Z,27.6010,-82.7510,10.0,5.7,210.0,,'1111122,1111122,1111122' 
COMPS,ioos:station:USF.COMPS:EGK:1,2010-12-12T16:00:00Z,27.6010,-82.7510,10.0,6.2,200.0,,'1111122,1111122,1111122' 
COMPS,ioos:station:USF.COMPS:EGK:1,2010-12-12T17:00:00Z,27.6010,-82.7510,10.0,10.8,320.0,,'1111122,1111122,1111122' 
COMPS,ioos:station:USF.COMPS:EGK:1,2010-12-12T18:00:00Z,27.6010,-82.7510,10.0,5.7,320.0,,'1111122,1111122,1111122' 
COMPS,ioos:station:USF.COMPS:EGK:1,2010-12-12T20:00:00Z,27.6010,-82.7510,10.0,4.1,260.0,,'1111122,1111122,1111122' 
COMPS,ioos:station:USF.COMPS:EGK:1,2010-12-12T21:00:00Z,27.6010,-82.7510,10.0,5.7,290.0,,'1111122,1111122,1111122' 
COMPS,ioos:station:USF.COMPS:EGK:1,2010-12-12T22:00:00Z,27.6010,-82.7510,10.0,6.2,300.0,,'1111122,1111122,1111122' 
COMPS,ioos:station:USF.COMPS:EGK:1,2010-12-12T23:00:00Z,27.6010,-82.7510,10.0,6.2,300.0,,'1111122,1111122,1111122' 
COMPS,ioos:station:USF.COMPS:EGK:1,2010-12-13T00:00:00Z,27.6010,-82.7510,10.0,7.2,300.0,,'1111122,1111122,1111122' 
COMPS,ioos:station:USF.COMPS:EGK:1,2010-12-13T15:00:00Z,27.6010,-82.7510,10.0,13.4,320.0,,'1111122,1111122,1111122' 
COMPS,ioos:station:USF.COMPS:EGK:1,2010-12-13T16:00:00Z,27.6010,-82.7510,10.0,13.9,320.0,,'1111122,1111122,1111122' 
COMPS,ioos:station:USF.COMPS:EGK:1,2010-12-13T17:00:00Z,27.6010,-82.7510,10.0,12.9,320.0,,'1111122,1111122,1111122' 
COMPS,ioos:station:USF.COMPS:EGK:1,2010-12-13T18:00:00Z,27.6010,-82.7510,10.0,12.9,330.0,,'1111122,1111122,1111122' 
COMPS,ioos:station:USF.COMPS:EGK:1,2010-12-13T20:00:00Z,27.6010,-82.7510,10.0,13.4,330.0,,'1111122,1111122,1111122' 
COMPS,ioos:station:USF.COMPS:EGK:1,2010-12-13T21:00:00Z,27.6010,-82.7510,10.0,14.4,330.0,,'1111122,1111122,1111122' 
COMPS,ioos:station:USF.COMPS:EGK:1,2010-12-13T22:00:00Z,27.6010,-82.7510,10.0,11.8,330.0,,'1111122,1111122,1111122' 
COMPS,ioos:station:USF.COMPS:EGK:1,2010-12-13T23:00:00Z,27.6010,-82.7510,10.0,11.3,320.0,,'1111122,1111122,1111122' 
COMPS,ioos:station:USF.COMPS:EGK:1,2010-12-14T13:00:00Z,27.6010,-82.7510,10.0,8.7,20.0,,'1111122,1111122,1111122' 
COMPS,ioos:station:USF.COMPS:EGK:1,2010-12-14T14:00:00Z,27.6010,-82.7510,10.0,7.7,20.0,,'1111122,1111122,1111122' 
COMPS,ioos:station:USF.COMPS:EGK:1,2010-12-14T15:00:00Z,27.6010,-82.7510,10.0,7.2,10.0,,'1111122,1111122,1111122' 
COMPS,ioos:station:USF.COMPS:EGK:1,2010-12-14T16:00:00Z,27.6010,-82.7510,10.0,6.7,360.0,,'1111122,1111122,1111122' 
COMPS,ioos:station:USF.COMPS:EGK:1,2010-12-14T17:00:00Z,27.6010,-82.7510,10.0,5.7,350.0,,'1111122,1111122,1111122' 
COMPS,ioos:station:USF.COMPS:EGK:1,2010-12-14T18:00:00Z,27.6010,-82.7510,10.0,7.2,350.0,,'1111122,1111122,1111122' 
COMPS,ioos:station:USF.COMPS:EGK:1,2010-12-14T19:00:00Z,27.6010,-82.7510,10.0,7.7,340.0,,'1111122,1111122,1111122' 
COMPS,ioos:station:USF.COMPS:EGK:1,2010-12-14T20:00:00Z,27.6010,-82.7510,10.0,6.7,350.0,,'1111122,1111122,1111122' 
COMPS,ioos:station:USF.COMPS:EGK:1,2010-12-14T22:00:00Z,27.6010,-82.7510,10.0,6.2,350.0,,'1111122,1111122,1111122' 
COMPS,ioos:station:USF.COMPS:EGK:1,2010-12-14T23:00:00Z,27.6010,-82.7510,10.0,4.6,360.0,,'1111122,1111122,1111122' 
COMPS,ioos:station:USF.COMPS:EGK:1,2010-12-15T00:00:00Z,27.6010,-82.7510,10.0,5.1,10.0,,'1111122,1111122,1111122' 
COMPS,ioos:station:USF.COMPS:EGK:1,2010-12-15T01:00:00Z,27.6010,-82.7510,10.0,4.1,10.0,,'1111122,1111122,1111122' 
COMPS,ioos:station:USF.COMPS:EGK:1,2010-12-15T02:00:00Z,27.6010,-82.7510,10.0,4.6,360.0,,'1111122,1111122,1111122' 
COMPS,ioos:station:USF.COMPS:EGK:1,2010-12-15T13:00:00Z,27.6010,-82.7510,10.0,5.1,40.0,,'1111122,1111122,1111122' 
COMPS,ioos:station:USF.COMPS:EGK:1,2010-12-15T14:00:00Z,27.6010,-82.7510,10.0,4.1,40.0,,'1111122,1111122,1111122' 
COMPS,ioos:station:USF.COMPS:EGK:1,2010-12-15T16:00:00Z,27.6010,-82.7510,10.0,4.1,40.0,,'1111122,1111122,1111122' 
COMPS,ioos:station:USF.COMPS:EGK:1,2010-12-15T17:00:00Z,27.6010,-82.7510,10.0,2.1,30.0,,'1111122,1111122,1111122' 
COMPS,ioos:station:USF.COMPS:EGK:1,2010-12-15T18:00:00Z,27.6010,-82.7510,10.0,2.1,110.0,,'1111122,1111122,1111122' 
COMPS,ioos:station:USF.COMPS:EGK:1,2010-12-15T20:00:00Z,27.6010,-82.7510,10.0,1.5,170.0,,'1111122,1111122,1111122' 
COMPS,ioos:station:USF.COMPS:EGK:1,2010-12-15T21:00:00Z,27.6010,-82.7510,10.0,2.6,280.0,,'1111122,1111122,1111122' 
COMPS,ioos:station:USF.COMPS:EGK:1,2010-12-15T22:00:00Z,27.6010,-82.7510,10.0,3.6,320.0,,'1111122,1111122,1111122' 
COMPS,ioos:station:USF.COMPS:EGK:1,2010-12-15T23:00:00Z,27.6010,-82.7510,10.0,2.1,310.0,,'1111122,1111122,1111122' 
COMPS,ioos:station:USF.COMPS:EGK:1,2010-12-16T00:00:00Z,27.6010,-82.7510,10.0,2.1,310.0,,'1111122,1111122,1111122' 
COMPS,ioos:station:USF.COMPS:EGK:1,2010-12-16T01:00:00Z,27.6010,-82.7510,10.0,2.6,340.0,,'1111122,1111122,1111122' 
COMPS,ioos:station:USF.COMPS:EGK:1,2010-12-16T02:00:00Z,27.6010,-82.7510,10.0,3.1,10.0,,'1111122,1111122,1111122' 
COMPS,ioos:station:USF.COMPS:EGK:1,2010-12-16T13:00:00Z,27.6010,-82.7510,10.0,4.6,150.0,,'1111122,1111122,1111122' 
COMPS,ioos:station:USF.COMPS:EGK:1,2010-12-16T14:00:00Z,27.6010,-82.7510,10.0,4.1,150.0,,'1111122,1111122,1111122' 
COMPS,ioos:station:USF.COMPS:EGK:1,2010-12-16T16:00:00Z,27.6010,-82.7510,10.0,3.1,170.0,,'1111122,1111122,1111122' 
COMPS,ioos:station:USF.COMPS:EGK:1,2010-12-16T17:00:00Z,27.6010,-82.7510,10.0,3.6,170.0,,'1111122,1111122,1111122' 
COMPS,ioos:station:USF.COMPS:EGK:1,2010-12-16T18:00:00Z,27.6010,-82.7510,10.0,4.1,180.0,,'1111122,1111122,1111122' 
COMPS,ioos:station:USF.COMPS:EGK:1,2010-12-16T19:00:00Z,27.6010,-82.7510,10.0,4.1,180.0,,'1111122,1111122,1111122' 
COMPS,ioos:station:USF.COMPS:EGK:1,2010-12-16T20:00:00Z,27.6010,-82.7510,10.0,3.6,160.0,,'1111122,1111122,1111122' 
COMPS,ioos:station:USF.COMPS:EGK:1,2010-12-16T21:00:00Z,27.6010,-82.7510,10.0,4.1,180.0,,'1111122,1111122,1111122' 
COMPS,ioos:station:USF.COMPS:EGK:1,2010-12-16T23:00:00Z,27.6010,-82.7510,10.0,3.1,170.0,,'1111122,1111122,1111122' 
COMPS,ioos:station:USF.COMPS:EGK:1,2010-12-17T00:00:00Z,27.6010,-82.7510,10.0,3.1,160.0,,'1111122,1111122,1111122' 
COMPS,ioos:station:USF.COMPS:EGK:1,2010-12-17T01:00:00Z,27.6010,-82.7510,10.0,3.1,140.0,,'1111122,1111122,1111122' 